Regional Weather Roundup
Issued by NWS Midland/Odessa, TX

Home | Current Version | Previous Version | Text Only | Print | Product List | Glossary On
Versions: 1 2 3 4 5 6 7 8 9 10 11 12 13 14 15 16 17 18 19 20 21 22 23 24 25 26 27 28 29 30 31 32 33 34 35 36 37 38 39 40 41 42 43 44 45 46 47 48 49 50
000
ASUS44 KMAF 060310
RWRMAF
MIDLAND AREA WEATHER ROUNDUP
NATIONAL WEATHER SERVICE MIDLAND TX
900 PM CST MON DEC 05 2016

...IN SOUTHWEST TEXAS AND SOUTHEAST NEW MEXICO...

CITY           SKY/WX    TMP DP  RH WIND       PRES   REMARKS
ALPINE         CLEAR     50  29  44 S9G17     29.93R
ANDREWS        FAIR      51  35  54 W10       29.75R
ARTESIA        CLEAR     50  30  46 W12       29.77R
BIG SPRING     PTCLDY    47  41  78 S8        29.73S
CARLSBAD       CLEAR     57  28  33 W26G33    29.76R
DRYDEN           N/A     56  43  61 W15       29.79R
FORT STOCKTON  CLEAR     53  37  54 SW16      29.80R
GUAD PASS      CLOUDY    45  29  53 SW26      29.89R WCI  36
HOBBS          CLEAR     50  32  50 W17       29.76S
MARFA          CLEAR     46  29  51 W15       29.92S WCI  40
MIDLAND AIRPK  CLEAR     56  35  45 W15       29.72F
MIDLAND INTL   CLEAR     55  33  43 W14       29.73R
ODESSA         CLEAR     55  32  41 W17       29.74S
PECOS          CLEAR     55  32  42 W14       29.77R
PRESIDIO       FAIR      52  43  71 NE5       29.89S
SEMINOLE       CLEAR     49  36  61 W17G24    29.73S
SNYDER         CLEAR     47  42  82 S8        29.69S
WINK           CLEAR     52  34  50 W13       29.75R
$$
...OTHER STATIONS IN TEXAS...

CITY           SKY/WX    TMP DP  RH WIND       PRES   REMARKS
ABILENE        CLEAR     47  45  93 SW12      29.70F
AMARILLO       CLEAR     48  24  39 W7        29.61R
AUSTIN         MOCLDY    50  49  96 CALM      29.78R
BROWNSVILLE    CLEAR     53  51  93 CALM      29.88R
CORPUS CHRISTI CLEAR     52  51  97 S6        29.84R
DALLAS FTW     CLOUDY    51  47  86 S7        29.72S
DEL RIO        CLEAR     48  46  93 CALM      29.79R
EL PASO        PTCLDY    56  26  31 W8        29.89R
HOUSTON INT    CLOUDY    52  50  93 W7        29.78R
LUBBOCK        PTCLDY    51  33  50 SW14      29.65R
SAN ANGELO     CLEAR     43  41  93 SW9       29.72F WCI  38
SAN ANTONIO    PTCLDY    51  47  86 CALM      29.80R
WACO           CLOUDY    50  50 100 S5        29.75S
WICHITA FALLS  NOT AVBL
$$
...OTHER LOCATIONS IN NEW MEXICO...

CITY           SKY/WX    TMP DP  RH WIND       PRES   REMARKS
ALAMAGORDO     NOT AVBL
ALBUQUERQUE    PTCLDY    46  15  28 NW5       29.87R
CANNON AFB     CLEAR     51  20  29 W14       29.72R
CLOVIS         CLEAR     50  21  32 W16       29.69S
HOLLOMAN AFB   CLEAR     45  22  40 SW8       29.89R
ROSWELL        CLEAR     49  32  52 W10       29.77R
RUIDOSO        CLEAR     41  16  36 NW7       29.89R WCI  36
SANTA FE       CLOUDY    35  10  35 N12       29.86R WCI  27
TRUTH OR CONSE CLEAR     50  17  27 W13       29.88R
TUCUMCARI      CLOUDY    51  19  28 NW17      29.68R
$$



USA.gov is the U.S. government's official web portal to all federal, state and local government web resources and services.